| time (UTC) | temp F | wind direction | speed MPH | gust MPH | rain 1hr in | rain 24hr in | rain mn in | humidity % | barometer mb |
| 20260506182455 | 59 | 175 | 1.0 | 2.0 | 0.12 | 0.55 | 0.55 | 99 | 1008.1 |
| 20260506181451 | 59 | 172 | 0.0 | 1.0 | 0.07 | 0.53 | 0.53 | 99 | 1008.0 |
| 20260506180449 | 59 | 176 | 0.0 | 0.0 | 0.12 | 0.52 | 0.52 | 99 | 1008.2 |
| 20260506175449 | 59 | 208 | 1.0 | 1.0 | 0.12 | 0.50 | 0.50 | 99 | 1008.2 |
| 20260506174449 | 59 | 191 | 1.0 | 2.0 | 0.17 | 0.48 | 0.48 | 99 | 1008.3 |
| 20260506173449 | 59 | 172 | 2.0 | 2.0 | 0.19 | 0.46 | 0.46 | 99 | 1008.5 |
| 20260506172449 | 59 | 174 | 0.0 | 1.0 | 0.12 | 0.43 | 0.43 | 99 | 1008.7 |
| 20260506171449 | 59 | 153 | 1.0 | 2.0 | 0.05 | 0.41 | 0.41 | 99 | 1008.7 |
| 20260506170449 | 59 | 177 | 0.0 | 1.0 | 0.12 | 0.40 | 0.40 | 99 | 1008.4 |
| 20260506165446 | 59 | 188 | 1.0 | 1.0 | 0.24 | 0.38 | 0.38 | 99 | 1008.3 |
| 20260506164444 | 58 | 162 | 3.0 | 5.0 | 0.19 | 0.35 | 0.35 | 99 | 1008.4 |
| 20260506163443 | 58 | 153 | 1.0 | 2.0 | 0.00 | 0.32 | 0.32 | 99 | 1008.4 |
| 20260506162442 | 58 | 167 | 3.0 | 5.0 | 0.05 | 0.32 | 0.32 | 99 | 1008.5 |
| 20260506161437 | 58 | 158 | 2.0 | 2.0 | 0.07 | 0.31 | 0.31 | 99 | 1008.7 |
| 20260506160437 | 59 | 152 | 2.0 | 2.0 | 0.00 | 0.30 | 0.30 | 99 | 1008.5 |
| 20260506155433 | 59 | 194 | 3.0 | 3.0 | 0.17 | 0.30 | 0.30 | 99 | 1008.7 |
| 20260506153604 | 59 | 187 | 3.0 | 3.0 | 0.24 | 0.26 | 0.26 | 99 | 1009.1 |
| 20260506152604 | 59 | 176 | 3.0 | 6.0 | 0.05 | 0.22 | 0.22 | 99 | 1009.5 |
| 20260506151600 | 59 | 186 | 1.0 | 2.0 | 0.14 | 0.21 | 0.21 | 99 | 1009.4 |
| 20260506150559 | 59 | 156 | 3.0 | 5.0 | 0.12 | 0.19 | 0.19 | 99 | 1009.3 |
| 20260506145559 | 59 | 225 | 2.0 | 3.0 | 0.00 | 0.17 | 0.17 | 99 | 1009.1 |
| 20260506144559 | 59 | 177 | 1.0 | 2.0 | 0.05 | 0.17 | 0.17 | 99 | 1009.2 |
| 20260506143554 | 59 | 181 | 1.0 | 2.0 | 0.12 | 0.16 | 0.16 | 99 | 1009.3 |
| 20260506142549 | 59 | 189 | 2.0 | 2.0 | 0.12 | 0.14 | 0.14 | 99 | 1009.4 |
| 20260506141545 | 59 | 175 | 0.0 | 1.0 | 0.12 | 0.12 | 0.12 | 99 | 1009.3 |
| 20260506140540 | 59 | 165 | 1.0 | 2.0 | 0.12 | 0.10 | 0.10 | 99 | 1009.5 |
| 20260506135540 | 59 | 186 | 1.0 | 1.0 | 0.12 | 0.09 | 0.09 | 99 | 1009.5 |
| 20260506134539 | 59 | 167 | 0.0 | 1.0 | 0.07 | 0.07 | 0.07 | 99 | 1009.7 |
| 20260506133538 | 59 | 173 | 0.0 | 1.0 | 0.12 | 0.06 | 0.06 | 99 | 1009.8 |
| 20260506132538 | 60 | 159 | 0.0 | 1.0 | 0.12 | 0.05 | 0.05 | 98 | 1009.5 |
| 20260506131538 | 60 | 175 | 2.0 | 3.0 | 0.07 | 0.03 | 0.03 | 97 | 1009.8 |
| 20260506130537 | 60 | 172 | 1.0 | 1.0 | 0.00 | 0.02 | 0.02 | 96 | 1010.0 |
| 20260506125533 | 61 | 181 | 1.0 | 1.0 | 0.05 | 0.02 | 0.02 | 95 | 1009.9 |
| 20260506124528 | 62 | 161 | 1.0 | 1.0 | 0.07 | 0.01 | 0.01 | 93 | 1009.7 |
| 20260506123523 | 62 | 159 | 0.0 | 1.0 | 0.00 | 0.00 | 0.00 | 91 | 1009.5 |
| 20260506122523 | 62 | 182 | 0.0 | 1.0 | 0.00 | 0.00 | 0.00 | 91 | 1009.5 |
| 20260506121519 | 62 | 172 | 0.0 | 0.0 | 0.00 | 0.00 | 0.00 | 92 | 1009.2 |
| 20260506120519 | 61 | 165 | 0.0 | 0.0 | 0.00 | 0.00 | 0.00 | 91 | 1009.4 |
| 20260506115519 | 62 | 202 | 1.0 | 2.0 | 0.00 | 0.00 | 0.00 | 88 | 1009.5 |
| 20260506114515 | 62 | 187 | 3.0 | 3.0 | 0.00 | 0.00 | 0.00 | 86 | 1009.6 |
| 20260506113511 | 63 | 197 | 1.0 | 2.0 | 0.00 | 0.00 | 0.00 | 84 | 1009.6 |
| 20260506112510 | 63 | 124 | 1.0 | 1.0 | 0.00 | 0.00 | 0.00 | 83 | 1009.5 |
| 20260506111506 | 63 | 176 | 0.0 | 0.0 | 0.00 | 0.00 | 0.00 | 83 | 1009.4 |
| 20260506110506 | 63 | 188 | 2.0 | 3.0 | 0.00 | 0.00 | 0.00 | 82 | 1009.5 |
| 20260506105504 | 63 | 141 | 1.0 | 2.0 | 0.00 | 0.00 | 0.00 | 82 | 1009.4 |
| 20260506104500 | 62 | 165 | 1.0 | 1.0 | 0.00 | 0.00 | 0.00 | 82 | 1009.2 |
| 20260506103500 | 62 | 180 | 1.0 | 1.0 | 0.00 | 0.00 | 0.00 | 82 | 1009.2 |
| 20260506102455 | 62 | 179 | 2.0 | 2.0 | 0.00 | 0.00 | 0.00 | 81 | 1009.1 |
| 20260506101455 | 62 | 159 | 0.0 | 0.0 | 0.00 | 0.00 | 0.00 | 81 | 1009.0 |
| 20260506100451 | 62 | 165 | 1.0 | 1.0 | 0.00 | 0.00 | 0.00 | 80 | 1008.8 |
| 20260506095447 | 62 | 164 | 0.0 | 1.0 | 0.00 | 0.00 | 0.00 | 80 | 1009.1 |
| 20260506094447 | 62 | 157 | 0.0 | 1.0 | 0.00 | 0.00 | 0.00 | 78 | 1009.0 |
| 20260506093442 | 62 | 150 | 0.0 | 0.0 | 0.00 | 0.00 | 0.00 | 79 | 1008.9 |
| 20260506092437 | 60 | 153 | 0.0 | 0.0 | 0.00 | 0.00 | 0.00 | 80 | 1008.9 |
| 20260506091432 | 60 | 121 | 0.0 | 0.0 | 0.00 | 0.00 | 0.00 | 79 | 1009.2 |
| 20260506090432 | 60 | 139 | 0.0 | 0.0 | 0.00 | 0.00 | 0.00 | 79 | 1008.8 |
| 20260506085432 | 60 | 161 | 0.0 | 0.0 | 0.00 | 0.00 | 0.00 | 79 | 1009.2 |
| 20260506084431 | 59 | 165 | 0.0 | 0.0 | 0.00 | 0.00 | 0.00 | 81 | 1009.0 |
| 20260506083430 | 59 | 124 | 0.0 | 0.0 | 0.00 | 0.00 | 0.00 | 81 | 1009.2 |
| 20260506082430 | 59 | 123 | 0.0 | 0.0 | 0.00 | 0.00 | 0.00 | 81 | 1009.2 |
| 20260506081430 | 60 | 119 | 1.0 | 1.0 | 0.00 | 0.00 | 0.00 | 79 | 1009.2 |
| 20260506080430 | 59 | 9 | 1.0 | 1.0 | 0.00 | 0.00 | 0.00 | 80 | 1009.2 |
| 20260506073420 | 61 | 142 | 0.0 | 0.0 | 0.00 | 0.00 | 0.00 | 75 | 1009.3 |
| 20260506072419 | 60 | 171 | 0.0 | 0.0 | 0.00 | 0.00 | 0.00 | 74 | 1009.4 |
| 20260506071415 | 60 | 163 | 0.0 | 0.0 | 0.00 | 0.00 | 0.00 | 74 | 1009.6 |
| 20260506070415 | 60 | 186 | 0.0 | 0.0 | 0.00 | 0.00 | 0.00 | 74 | 1009.4 |
| 20260506062358 | 64 | 183 | 0.0 | 0.0 | 0.00 | 0.00 | 0.00 | 66 | 1009.9 |
| 20260506061356 | 64 | 183 | 0.0 | 0.0 | 0.00 | 0.00 | 0.00 | 66 | 1010.2 |
| 20260506060352 | 64 | 192 | 2.0 | 2.0 | 0.00 | 0.00 | 0.00 | 66 | 1010.1 |
| 20260506051342 | 62 | 171 | 0.0 | 0.0 | 0.00 | 0.00 | 0.00 | 69 | 1010.4 |
| 20260506050336 | 62 | 171 | 0.0 | 0.0 | 0.00 | 0.00 | 0.00 | 70 | 1010.2 |
| 20260506044337 | 62 | 184 | 1.0 | 2.0 | 0.00 | 0.00 | 0.00 | 67 | 1010.5 |
| 20260506043336 | 63 | 184 | 0.0 | 0.0 | 0.00 | 0.00 | 0.00 | 66 | 1010.4 |
| 20260506042333 | 64 | 176 | 0.0 | 0.0 | 0.00 | 0.00 | 0.00 | 64 | 1010.4 |
| 20260506041328 | 64 | 199 | 0.0 | 0.0 | 0.00 | 0.00 | 0.00 | 63 | 1010.6 |
| 20260506040323 | 64 | 191 | 0.0 | 1.0 | 0.00 | 0.00 | 0.00 | 63 | 1010.5 |
| 20260506035322 | 64 | 186 | 0.0 | 1.0 | 0.00 | 0.03 | 0.03 | 63 | 1010.4 |
| 20260506034322 | 65 | 188 | 0.0 | 0.0 | 0.00 | 0.03 | 0.03 | 62 | 1010.5 |
| 20260506033322 | 66 | 189 | 0.0 | 0.0 | 0.00 | 0.03 | 0.03 | 60 | 1010.5 |
| 20260506032321 | 66 | 175 | 0.0 | 0.0 | 0.00 | 0.03 | 0.03 | 59 | 1010.3 |
| 20260506031321 | 66 | 161 | 0.0 | 0.0 | 0.00 | 0.03 | 0.03 | 59 | 1010.4 |
| 20260506030317 | 67 | 249 | 1.0 | 1.0 | 0.00 | 0.03 | 0.03 | 58 | 1010.2 |
| 20260506025315 | 68 | 162 | 1.0 | 1.0 | 0.00 | 0.03 | 0.03 | 56 | 1010.4 |
| 20260506024315 | 68 | 176 | 0.0 | 1.0 | 0.00 | 0.03 | 0.03 | 55 | 1010.3 |
| 20260506023314 | 69 | 189 | 1.0 | 1.0 | 0.00 | 0.03 | 0.03 | 54 | 1010.5 |
| 20260506022314 | 70 | 180 | 1.0 | 1.0 | 0.00 | 0.03 | 0.03 | 53 | 1010.4 |
| 20260506021309 | 69 | 191 | 2.0 | 2.0 | 0.00 | 0.03 | 0.03 | 54 | 1010.6 |
| 20260506020309 | 70 | 187 | 3.0 | 3.0 | 0.00 | 0.03 | 0.03 | 52 | 1010.5 |
| 20260506015306 | 70 | 186 | 3.0 | 5.0 | 0.00 | 0.03 | 0.03 | 52 | 1010.4 |
| 20260506014303 | 71 | 174 | 2.0 | 2.0 | 0.00 | 0.03 | 0.03 | 52 | 1010.1 |
| 20260506013302 | 71 | 178 | 2.0 | 3.0 | 0.00 | 0.03 | 0.03 | 52 | 1010.0 |
| 20260506012306 | 71 | 163 | 1.0 | 1.0 | 0.00 | 0.03 | 0.03 | 51 | 1009.9 |
| 20260506011301 | 71 | 173 | 1.0 | 1.0 | 0.00 | 0.03 | 0.03 | 51 | 1009.6 |
| 20260506010257 | 71 | 176 | 2.0 | 2.0 | 0.00 | 0.03 | 0.03 | 51 | 1009.6 |
| 20260506005256 | 71 | 180 | 1.0 | 2.0 | 0.00 | 0.03 | 0.03 | 50 | 1009.4 |
| 20260506004256 | 72 | 172 | 1.0 | 2.0 | 0.00 | 0.03 | 0.03 | 49 | 1009.5 |
| 20260506003254 | 72 | 166 | 4.0 | 5.0 | 0.00 | 0.03 | 0.03 | 48 | 1009.4 |
| 20260506002253 | 73 | 170 | 3.0 | 5.0 | 0.00 | 0.03 | 0.03 | 47 | 1009.3 |
| 20260506001252 | 73 | 165 | 3.0 | 3.0 | 0.00 | 0.03 | 0.03 | 47 | 1009.1 |
| 20260506000252 | 74 | 192 | 1.0 | 2.0 | 0.00 | 0.03 | 0.03 | 46 | 1009.2 |
| 20260505235252 | 74 | 211 | 2.0 | 5.0 | 0.00 | 0.03 | 0.03 | 46 | 1009.1 |
| 20260505234252 | 74 | 199 | 1.0 | 2.0 | 0.00 | 0.03 | 0.03 | 45 | 1008.9 |
| 20260505233247 | 74 | 186 | 3.0 | 3.0 | 0.00 | 0.03 | 0.03 | 44 | 1008.9 |
| 20260505232247 | 75 | 197 | 3.0 | 5.0 | 0.00 | 0.03 | 0.03 | 45 | 1008.8 |
| 20260505231242 | 75 | 139 | 2.0 | 3.0 | 0.00 | 0.03 | 0.03 | 45 | 1008.9 |
| 20260505230242 | 75 | 159 | 2.0 | 3.0 | 0.00 | 0.03 | 0.03 | 44 | 1008.7 |
| 20260505225242 | 75 | 174 | 1.0 | 2.0 | 0.00 | 0.03 | 0.03 | 45 | 1008.5 |
| 20260505224241 | 75 | 203 | 1.0 | 3.0 | 0.00 | 0.03 | 0.03 | 45 | 1008.4 |
| 20260505223240 | 75 | 186 | 4.0 | 5.0 | 0.00 | 0.03 | 0.03 | 45 | 1008.5 |
| 20260505222239 | 76 | 186 | 1.0 | 1.0 | 0.00 | 0.03 | 0.03 | 44 | 1008.5 |
| 20260505221238 | 76 | 186 | 1.0 | 2.0 | 0.00 | 0.03 | 0.03 | 44 | 1008.4 |
| 20260505220233 | 76 | 199 | 3.0 | 3.0 | 0.00 | 0.03 | 0.03 | 43 | 1008.2 |
| 20260505215228 | 76 | 209 | 5.0 | 7.0 | 0.00 | 0.03 | 0.03 | 43 | 1008.3 |
| 20260505214223 | 76 | 199 | 3.0 | 3.0 | 0.00 | 0.03 | 0.03 | 43 | 1008.4 |
| 20260505213218 | 77 | 182 | 3.0 | 3.0 | 0.00 | 0.03 | 0.03 | 44 | 1008.3 |
| 20260505212217 | 77 | 180 | 3.0 | 5.0 | 0.00 | 0.03 | 0.03 | 42 | 1008.2 |
| 20260505211217 | 78 | 163 | 4.0 | 6.0 | 0.00 | 0.03 | 0.03 | 43 | 1007.9 |
| 20260505210216 | 78 | 206 | 5.0 | 6.0 | 0.00 | 0.03 | 0.03 | 43 | 1008.0 |
| 20260505205212 | 78 | 197 | 4.0 | 5.0 | 0.00 | 0.03 | 0.03 | 43 | 1008.1 |
| 20260505204212 | 78 | 203 | 3.0 | 5.0 | 0.00 | 0.03 | 0.03 | 43 | 1008.2 |
| 20260505203212 | 78 | 168 | 3.0 | 5.0 | 0.00 | 0.03 | 0.03 | 44 | 1008.1 |
| 20260505202209 | 79 | 181 | 2.0 | 3.0 | 0.00 | 0.03 | 0.03 | 40 | 1008.0 |
| 20260505201204 | 79 | 192 | 4.0 | 6.0 | 0.00 | 0.03 | 0.03 | 36 | 1008.0 |
| 20260505200204 | 80 | 141 | 4.0 | 7.0 | 0.00 | 0.03 | 0.03 | 38 | 1008.0 |
| 20260505195203 | 79 | 229 | 5.0 | 7.0 | 0.00 | 0.03 | 0.03 | 37 | 1008.4 |
| 20260505194202 | 80 | 144 | 4.0 | 7.0 | 0.00 | 0.03 | 0.03 | 37 | 1008.4 |
| 20260505193202 | 80 | 199 | 7.0 | 11.0 | 0.00 | 0.03 | 0.03 | 36 | 1008.5 |
| 20260505192157 | 81 | 169 | 6.0 | 10.0 | 0.00 | 0.03 | 0.03 | 36 | 1008.5 |
| 20260505191153 | 80 | 251 | 5.0 | 9.0 | 0.00 | 0.03 | 0.03 | 35 | 1008.7 |
| 20260505190149 | 80 | 123 | 3.0 | 5.0 | 0.00 | 0.03 | 0.03 | 36 | 1008.5 |
| 20260505185148 | 79 | 181 | 6.0 | 7.0 | 0.00 | 0.03 | 0.03 | 38 | 1009.1 |
| 20260505184148 | 80 | 247 | 6.0 | 11.0 | 0.00 | 0.03 | 0.03 | 37 | 1009.1 |
| 20260505183148 | 79 | 189 | 5.0 | 8.0 | 0.00 | 0.03 | 0.03 | 38 | 1009.1 |